FW9086 Weather Reports


Display with metric or nautical units.
time (UTC)temp
F
wind
direction
speed
MPH
gust
MPH
rain 1hr
in
rain 24hr
in
rain mn
in
humidity
%
barometer
mb
20260506230758 55 158 0.0 0.0 0.00 0.07 0.07 63 1011.5
20260506230255 55 154 0.0 0.0 0.00 0.07 0.07 60 1011.6
20260506225751 55 170 0.0 0.0 0.00 0.07 0.07 59 1011.6
20260506225249 55 268 3.0 3.0 0.00 0.07 0.07 63 1011.5
20260506224745 56 264 4.0 5.0 0.00 0.07 0.07 59 1011.7
20260506224243 56 253 3.0 3.0 0.00 0.07 0.07 58 1011.4
20260506223738 56 151 0.0 0.0 0.00 0.07 0.07 64 1011.7
20260506223234 55 149 0.0 0.0 0.00 0.07 0.07 62 1011.6
20260506222731 55 129 0.0 0.0 0.00 0.07 0.07 62 1011.8
20260506222226 56 177 0.0 1.0 0.00 0.07 0.07 66 1011.9
20260506221725 56 165 1.0 1.0 0.00 0.07 0.07 64 1011.8
20260506221223 56 211 0.0 1.0 0.00 0.07 0.07 69 1011.9
20260506220720 55 252 1.0 2.0 0.00 0.07 0.07 66 1011.7
20260506220214 55 243 2.0 2.0 0.00 0.07 0.07 67 1011.7
20260506215711 55 249 3.0 3.0 0.00 0.07 0.07 66 1012.1
20260506215207 56 271 3.0 3.0 0.00 0.07 0.07 63 1012.0
20260506214703 56 266 3.0 3.0 0.00 0.07 0.07 66 1011.9
20260506214201 56 215 3.0 5.0 0.00 0.07 0.07 69 1012.0
20260506213659 56 244 2.0 2.0 0.00 0.07 0.07 65 1011.9
20260506213156 57 248 2.0 3.0 0.00 0.07 0.07 67 1011.8
20260506212653 56 253 3.0 3.0 0.00 0.07 0.07 64 1011.8
20260506212148 56 154 0.0 0.0 0.00 0.07 0.07 67 1011.6
20260506211644 56 257 0.0 0.0 0.00 0.07 0.07 63 1011.7
20260506211141 57 217 0.0 0.0 0.00 0.07 0.07 65 1011.6
20260506210638 57 263 0.0 0.0 0.00 0.07 0.07 66 1011.5
20260506210134 57 269 0.0 0.0 0.00 0.07 0.07 71 1011.6
20260506205632 57 133 0.0 0.0 0.00 0.07 0.07 69 1011.6
20260506205126 57 176 0.0 0.0 0.00 0.07 0.07 69 1011.4
20260506204625 57 254 0.0 0.0 0.00 0.07 0.07 68 1011.6
20260506204121 56 247 3.0 3.0 0.00 0.07 0.07 66 1011.4
20260506203619 56 242 4.0 5.0 0.00 0.07 0.07 65 1011.5
20260506203116 56 243 2.0 2.0 0.00 0.07 0.07 65 1011.6
20260506202614 56 257 0.0 0.0 0.00 0.07 0.07 67 1011.6
20260506202110 56 249 2.0 2.0 0.00 0.07 0.07 68 1011.6
20260506201607 56 256 3.0 3.0 0.00 0.07 0.07 64 1011.6
20260506201103 56 257 0.0 2.0 0.00 0.07 0.07 66 1011.7
20260506200600 56 266 0.0 0.0 0.00 0.07 0.07 64 1011.5
20260506200056 56 263 2.0 2.0 0.00 0.07 0.07 67 1011.7
20260506195553 56 253 1.0 2.0 0.00 0.07 0.07 66 1011.6
20260506195049 56 211 1.0 1.0 0.00 0.07 0.07 70 1011.8
20260506194548 56 158 0.0 0.0 0.00 0.07 0.07 70 1011.6
20260506194043 56 146 0.0 0.0 0.00 0.07 0.07 70 1011.5
20260506193541 57 157 0.0 0.0 0.00 0.07 0.07 75 1011.7
20260506193038 56 203 0.0 0.0 0.00 0.07 0.07 72 1011.8
20260506192535 56 239 0.0 0.0 0.00 0.07 0.07 71 1011.6
20260506192031 56 127 1.0 2.0 0.00 0.07 0.07 68 1011.6
20260506191528 56 341 0.0 0.0 0.00 0.07 0.07 73 1011.8
20260506191024 56 236 0.0 0.0 0.00 0.07 0.07 67 1011.6
20260506190521 56 145 0.0 0.0 0.00 0.07 0.07 71 1011.7
20260506190019 56 217 0.0 0.0 0.00 0.07 0.07 64 1011.8
20260506185515 56 248 0.0 0.0 0.00 0.07 0.07 67 1011.5
20260506185012 56 251 0.0 0.0 0.00 0.07 0.07 69 1011.5
20260506184509 56 258 0.0 0.0 0.00 0.07 0.07 65 1011.7
20260506184006 55 214 0.0 0.0 0.00 0.07 0.07 67 1011.6
20260506183502 56 160 0.0 0.0 0.00 0.07 0.07 70 1011.8
20260506182959 55 207 0.0 0.0 0.00 0.07 0.07 64 1011.5
20260506182456 55 244 0.0 0.0 0.00 0.07 0.07 70 1011.7
20260506181953 56 155 0.0 0.0 0.00 0.07 0.07 79 1011.7
20260506181451 55 183 0.0 0.0 0.00 0.07 0.07 70 1011.6
20260506180948 55 142 0.0 0.0 0.00 0.07 0.07 70 1011.7
20260506180444 55 156 0.0 0.0 0.00 0.07 0.07 73 1011.8
20260506175941 56 250 0.0 0.0 0.00 0.07 0.07 67 1011.6
20260506175438 56 255 0.0 0.0 0.00 0.07 0.07 65 1011.7
20260506174934 56 157 0.0 0.0 0.00 0.07 0.07 76 1011.8
20260506174433 56 163 0.0 0.0 0.00 0.07 0.07 78 1011.8
20260506173929 55 193 0.0 0.0 0.00 0.07 0.07 72 1011.8
20260506173426 55 187 0.0 0.0 0.00 0.07 0.07 68 1011.5
20260506172923 55 155 0.0 0.0 0.00 0.07 0.07 73 1011.9
20260506172420 54 212 0.0 0.0 0.00 0.07 0.07 63 1011.7
20260506171917 55 211 0.0 0.0 0.00 0.07 0.07 67 1011.8
20260506171414 55 193 0.0 0.0 0.00 0.07 0.07 68 1011.7
20260506170912 55 242 0.0 0.0 0.00 0.07 0.07 73 1011.7
20260506170407 55 163 0.0 0.0 0.00 0.07 0.07 72 1011.6
20260506165901 55 172 0.0 0.0 0.00 0.07 0.07 68 1011.6
20260506165359 55 243 0.0 0.0 0.00 0.07 0.07 60 1011.9
20260506164855 55 206 0.0 0.0 0.00 0.07 0.07 73 1011.8
20260506164351 55 177 0.0 0.0 0.00 0.07 0.07 72 1011.8
20260506163849 55 167 0.0 0.0 0.00 0.07 0.07 76 1011.9
20260506163343 54 157 0.0 0.0 0.00 0.07 0.07 70 1011.9
20260506162839 55 179 0.0 0.0 0.00 0.07 0.07 70 1011.6
20260506162337 56 165 0.0 0.0 0.00 0.07 0.07 72 1011.6
20260506161835 57 158 0.0 0.0 0.00 0.07 0.07 70 1011.4
20260506161332 57 162 0.0 0.0 0.00 0.07 0.07 73 1011.3
20260506160829 56 155 0.0 0.0 0.00 0.07 0.07 67 1011.5
20260506160325 56 178 0.0 0.0 0.00 0.07 0.07 74 1011.4
20260506155824 55 209 0.0 0.0 0.00 0.07 0.07 68 1011.2
20260506155320 55 173 0.0 0.0 0.00 0.07 0.07 77 1011.7
20260506153433 54 189 0.0 1.0 0.00 0.07 0.07 63 1011.3
20260506152931 54 169 0.0 0.0 0.00 0.07 0.07 75 1011.4
20260506152427 55 98 0.0 0.0 0.00 0.07 0.07 77 1011.4
20260506151926 54 199 0.0 0.0 0.00 0.07 0.07 76 1011.4
20260506151422 55 134 1.0 1.0 0.00 0.07 0.07 65 1011.1
20260506150920 56 155 0.0 0.0 0.00 0.07 0.07 77 1011.3
20260506150416 56 134 0.0 0.0 0.00 0.07 0.07 74 1010.9
20260506145913 55 159 0.0 0.0 0.00 0.07 0.07 78 1011.2
20260506145409 54 211 2.0 2.0 0.00 0.07 0.07 75 1011.5
20260506144907 53 171 0.0 0.0 0.00 0.07 0.07 77 1011.3
20260506144403 54 183 0.0 0.0 0.00 0.07 0.07 77 1011.5
20260506143902 53 146 1.0 1.0 0.00 0.07 0.07 80 1011.3
20260506143358 53 251 0.0 0.0 0.00 0.07 0.07 80 1011.2
20260506142857 52 213 0.0 0.0 0.00 0.07 0.07 82 1011.0
20260506142354 53 82 0.0 0.0 0.00 0.07 0.07 91 1011.1
20260506141852 52 120 0.0 0.0 0.00 0.07 0.07 92 1011.1
20260506141350 50 160 0.0 0.0 0.00 0.07 0.07 89 1010.9
20260506140848 51 65 0.0 0.0 0.00 0.07 0.07 99 1011.0
20260506140345 52 136 0.0 0.0 0.00 0.07 0.07 99 1010.9
20260506135842 51 129 0.0 0.0 0.00 0.07 0.07 99 1010.8
20260506135338 49 136 0.0 0.0 0.00 0.07 0.07 99 1010.9
20260506134834 49 147 0.0 0.0 0.00 0.07 0.07 99 1010.8
20260506134331 49 251 0.0 0.0 0.00 0.07 0.07 99 1011.2
20260506133828 48 145 0.0 0.0 0.00 0.07 0.07 99 1010.7
20260506133325 48 160 0.0 0.0 0.00 0.07 0.07 99 1010.7
20260506132822 49 214 0.0 0.0 0.00 0.07 0.07 99 1010.4
20260506132319 48 142 0.0 0.0 0.00 0.07 0.07 99 1010.2
20260506131817 47 160 0.0 0.0 0.00 0.07 0.07 99 1010.5
20260506131313 47 155 0.0 0.0 0.00 0.07 0.07 99 1010.7
20260506130810 48 146 0.0 0.0 0.00 0.07 0.07 99 1010.5
20260506130306 47 157 0.0 0.0 0.00 0.07 0.07 99 1010.6
20260506125805 48 155 0.0 0.0 0.00 0.07 0.07 99 1010.2
20260506125305 47 153 0.0 0.0 0.00 0.07 0.07 99 1010.8
20260506124801 47 218 0.0 0.0 0.00 0.07 0.07 99 1011.0
20260506124257 47 164 0.0 0.0 0.00 0.07 0.07 99 1010.7
20260506123755 47 164 0.0 0.0 0.00 0.07 0.07 99 1010.5
20260506123254 46 164 0.0 0.0 0.00 0.07 0.07 99 1010.5
20260506122750 46 160 0.0 0.0 0.00 0.07 0.07 99 1010.3
20260506122247 46 159 0.0 0.0 0.00 0.07 0.07 99 1010.0
20260506121745 46 152 0.0 0.0 0.00 0.07 0.07 99 1010.3
20260506121242 46 155 0.0 0.0 0.00 0.07 0.07 99 1010.4
20260506120739 45 165 0.0 0.0 0.00 0.07 0.07 99 1010.1
20260506120237 45 182 0.0 0.0 0.00 0.07 0.07 99 1010.1
20260506115734 45 159 0.0 0.0 0.00 0.07 0.07 99 1009.9
20260506115232 45 165 0.0 0.0 0.00 0.07 0.07 99 1009.9
20260506114730 45 163 0.0 0.0 0.00 0.07 0.07 99 1009.9
20260506114227 45 185 0.0 0.0 0.00 0.07 0.07 99 1010.0
20260506113726 44 149 0.0 0.0 0.00 0.07 0.07 99 1009.3
20260506113223 44 144 0.0 0.0 0.00 0.07 0.07 99 1009.1
20260506112719 44 143 0.0 0.0 0.00 0.07 0.07 99 1009.3
20260506112217 44 162 0.0 0.0 0.00 0.07 0.07 99 1009.5
20260506111714 44 184 0.0 0.0 0.00 0.07 0.07 99 1009.3
20260506111212 44 180 0.0 0.0 0.00 0.07 0.07 99 1009.1
20260506110708 44 156 0.0 0.0 0.00 0.07 0.07 99 1008.8
20260506110206 44 149 0.0 0.0 0.00 0.07 0.07 99 1008.9
20260506105703 44 149 0.0 0.0 0.00 0.07 0.07 99 1008.8
20260506105159 44 144 0.0 0.0 0.00 0.07 0.07 99 1008.9
20260506104658 44 177 0.0 0.0 0.00 0.07 0.07 99 1008.9
20260506104155 45 158 0.0 0.0 0.00 0.07 0.07 99 1008.7
20260506103652 45 158 0.0 0.0 0.00 0.07 0.07 99 1008.3
20260506103149 45 160 0.0 0.0 0.00 0.07 0.07 99 1008.2
20260506102647 45 166 0.0 0.0 0.00 0.07 0.07 99 1008.1
20260506102144 45 145 0.0 0.0 0.00 0.07 0.07 99 1007.6
20260506101641 45 145 0.0 0.0 0.00 0.07 0.07 99 1007.7
20260506101138 46 161 0.0 0.0 0.00 0.07 0.07 99 1007.7
20260506100636 46 163 0.0 0.0 0.00 0.07 0.07 99 1007.9
20260506100134 46 143 0.0 0.0 0.00 0.07 0.07 99 1007.7
20260506095632 46 151 0.0 0.0 0.00 0.07 0.07 99 1008.1
20260506095129 46 156 0.0 0.0 0.00 0.07 0.07 99 1008.4
20260506094626 46 158 0.0 0.0 0.00 0.07 0.07 99 1008.8
20260506094124 46 190 0.0 0.0 0.00 0.07 0.07 99 1008.4
20260506093622 46 163 0.0 0.0 0.00 0.07 0.07 99 1008.4
20260506093119 45 185 0.0 0.0 0.00 0.07 0.07 99 1008.3
20260506092617 45 176 0.0 0.0 0.00 0.07 0.07 99 1007.6
20260506092113 46 142 0.0 0.0 0.00 0.07 0.07 99 1007.7
20260506091612 46 155 0.0 0.0 0.00 0.07 0.07 99 1008.0
20260506091109 46 168 0.0 0.0 0.00 0.07 0.07 99 1008.2
20260506090607 46 161 0.0 0.0 0.00 0.07 0.07 99 1007.9
20260506085559 46 137 0.0 0.0 0.00 0.07 0.07 99 1007.7
20260506085056 46 137 0.0 0.0 0.00 0.07 0.07 99 1007.6
20260506084553 45 156 0.0 0.0 0.00 0.07 0.07 99 1007.4
20260506084049 45 156 0.0 0.0 0.00 0.07 0.07 99 1007.4
20260506083547 45 158 0.0 0.0 0.00 0.07 0.07 99 1007.5
20260506083044 46 153 0.0 0.0 0.00 0.07 0.07 99 1007.3
20260506082540 46 158 0.0 0.0 0.00 0.07 0.07 99 1007.2
20260506082036 46 142 0.0 0.0 0.00 0.07 0.07 99 1007.6
20260506081535 46 142 0.0 0.0 0.00 0.07 0.07 99 1007.7
20260506081032 46 154 0.0 0.0 0.00 0.07 0.07 99 1008.0
20260506080529 46 144 0.0 0.0 0.00 0.07 0.07 99 1008.0
20260506073513 45 144 0.0 0.0 0.00 0.07 0.07 99 1006.8
20260506073010 45 144 0.0 0.0 0.00 0.07 0.07 99 1007.0
20260506072507 45 144 0.0 0.0 0.00 0.07 0.07 99 1007.2
20260506072004 45 142 0.0 0.0 0.00 0.07 0.07 99 1007.0
20260506071502 45 144 0.0 0.0 0.00 0.07 0.07 99 1007.4
20260506070959 46 140 0.0 0.0 0.00 0.07 0.07 99 1007.0
20260506070456 46 138 0.0 0.0 0.00 0.07 0.07 99 1007.1
20260506062434 46 157 0.0 0.0 0.00 0.06 0.06 99 1007.9
20260506061929 46 169 0.0 0.0 0.00 0.06 0.06 99 1007.7
20260506061426 46 152 0.0 0.0 0.00 0.06 0.06 99 1007.5
20260506060924 46 136 0.0 0.0 0.00 0.06 0.06 99 1007.0
20260506060422 46 141 0.0 0.0 0.00 0.06 0.06 99 1007.2
20260506051354 45 47 0.0 0.0 0.00 0.05 0.05 99 1007.7
20260506050851 46 134 0.0 0.0 0.07 0.05 0.05 99 1007.8
20260506050349 46 137 0.0 0.0 0.12 0.05 0.05 99 1008.1
20260506044839 46 46 0.0 0.0 0.00 0.02 0.02 99 1008.0
20260506044337 46 130 0.0 0.0 0.05 0.02 0.02 99 1008.0
20260506043834 46 159 0.0 0.0 0.05 0.02 0.02 99 1008.2
20260506043331 46 133 0.0 0.0 0.00 0.01 0.01 99 1007.7
20260506042829 46 121 0.0 0.0 0.00 0.01 0.01 99 1007.6
20260506042328 46 143 0.0 0.0 0.07 0.01 0.01 99 1007.3
20260506041827 46 125 0.0 0.0 0.07 0.01 0.01 99 1007.3
20260506041323 46 133 0.0 0.0 0.00 0.00 0.00 99 1007.4
20260506040820 46 121 0.0 0.0 0.00 0.00 0.00 99 1007.3
20260506040317 46 121 0.0 0.0 0.00 0.00 0.00 99 1007.5
20260506035814 46 61 0.0 0.0 0.00 1.94 1.94 99 1007.1
20260506035311 47 99 0.0 0.0 0.05 1.94 1.94 99 1007.0
20260506034808 47 111 0.0 0.0 0.05 1.94 1.94 99 1007.2
20260506034305 47 70 0.0 0.0 0.05 1.94 1.94 99 1006.7
20260506033802 47 133 0.0 0.0 0.00 1.93 1.93 99 1007.0
20260506033259 47 86 0.0 0.0 0.07 1.93 1.93 99 1007.0
20260506032756 47 142 0.0 0.0 0.19 1.93 1.93 99 1006.8
20260506032253 47 119 0.0 0.0 0.24 1.92 1.92 99 1006.8
20260506031749 47 136 0.0 0.0 0.24 1.90 1.90 99 1007.5
20260506031247 47 106 0.0 0.0 0.31 1.88 1.88 99 1007.6
20260506030745 47 152 0.0 0.0 0.17 1.85 1.85 99 1007.7
20260506030243 47 164 0.0 0.0 0.05 1.83 1.83 99 1008.0
20260506025739 47 235 0.0 0.0 0.05 1.83 1.83 99 1007.5
20260506025235 47 154 0.0 0.0 0.00 1.82 1.82 99 1006.9
20260506024733 47 143 0.0 0.0 0.00 1.82 1.82 99 1006.7
20260506024229 47 140 0.0 0.0 0.00 1.82 1.82 99 1006.6
20260506023725 47 128 0.0 0.0 0.00 1.82 1.82 99 1006.3
20260506023223 47 130 0.0 0.0 0.07 1.82 1.82 99 1006.4
20260506022719 47 143 0.0 0.0 0.12 1.82 1.82 99 1006.2
20260506022217 47 105 0.0 0.0 0.26 1.82 1.82 99 1006.0
20260506021715 47 121 0.0 0.0 0.31 1.80 1.80 99 1006.6
20260506021212 47 132 0.0 0.0 0.35 1.78 1.78 99 1006.4
20260506020708 47 66 0.0 0.0 0.35 1.76 1.76 99 1006.9
20260506020206 47 197 0.0 0.0 0.19 1.73 1.73 99 1007.4
20260506015704 47 221 1.0 1.0 0.05 1.70 1.70 99 1007.3
20260506015201 47 113 0.0 0.0 0.12 1.70 1.70 99 1006.7
20260506014658 47 134 0.0 0.0 0.07 1.69 1.69 99 1006.0
20260506014154 47 129 0.0 0.0 0.05 1.68 1.68 99 1005.9
20260506013652 47 136 0.0 0.0 0.12 1.68 1.68 99 1005.7
20260506013149 47 113 0.0 0.0 0.14 1.67 1.67 99 1005.5
20260506012645 47 90 0.0 0.0 0.12 1.66 1.66 99 1005.5
20260506012142 47 119 0.0 0.0 0.05 1.65 1.65 99 1006.1
20260506011639 46 133 0.0 0.0 0.00 1.64 1.64 99 1006.1
20260506011135 47 112 0.0 0.0 0.00 1.64 1.64 99 1005.7
20260506010634 47 132 0.0 0.0 0.07 1.64 1.64 99 1005.8
20260506010131 47 116 0.0 0.0 0.07 1.64 1.64 99 1005.7
20260506005628 47 136 0.0 0.0 0.00 1.63 1.63 99 1006.0
20260506005124 46 129 0.0 0.0 0.05 1.63 1.63 99 1006.0
20260506004621 46 136 0.0 0.0 0.12 1.63 1.63 99 1006.1
20260506004118 47 105 0.0 0.0 0.07 1.62 1.62 99 1005.9
20260506003615 47 56 0.0 0.0 0.12 1.62 1.62 99 1006.1
20260506003111 47 97 0.0 0.0 0.12 1.61 1.61 99 1005.7
20260506002607 47 135 0.0 0.0 0.07 1.60 1.60 99 1006.0
20260506002103 47 137 0.0 0.0 0.12 1.60 1.60 99 1006.2
20260506001559 47 142 0.0 0.0 0.12 1.59 1.59 99 1006.2
20260506001056 46 142 0.0 0.0 0.07 1.58 1.58 99 1006.2
20260506000554 46 142 0.0 0.0 0.12 1.58 1.58 99 1005.8
20260506000051 46 98 0.0 0.0 0.12 1.57 1.57 99 1006.0
20260505235549 46 125 0.0 0.0 0.19 1.56 1.56 99 1005.6
20260505235045 46 99 0.0 0.0 0.12 1.54 1.54 99 1005.6
20260505234542 46 140 0.0 0.0 0.19 1.53 1.53 99 1005.9
20260505234039 46 70 1.0 1.0 0.12 1.52 1.52 99 1005.9
20260505233537 46 126 0.0 0.0 0.05 1.50 1.50 99 1006.5
20260505233034 46 143 0.0 0.0 0.12 1.50 1.50 99 1006.3
20260505232532 46 106 0.0 0.0 0.12 1.49 1.49 99 1006.4
20260505232029 47 133 0.0 0.0 0.19 1.49 1.49 99 1006.6
20260505231526 47 72 0.0 0.0 0.12 1.47 1.47 99 1006.3